This demonstration page uses our WeatherBlox Daily Observations layout. Learn more.

36.19886, -115.1175

Hourly Observations for September 20, 2019

Temp ( °F °C ) Dew Point ( °F °C ) Humidity (%) Winds ( mph kmh ) Pressure ( in mb ) Visibility ( mi km ) Precip ( " mm )
12:53 am 00:53 Clear 71 21.7 30 -1.1 22 22 WNW 18 30 29.77 1008 10 16.09344 0 0
1:53 am 01:53 Clear 71 21.7 30 -1.1 22 22 NW 10 17 29.8 1009 10 16.09344 0 0
2:53 am 02:53 Clear 68 20 31 -0.6 25 25 NNW 14 22 29.8 1009 10 16.09344 0 0
3:53 am 03:53 Clear 68 20 31 -0.6 25 25 NNW 10 17 29.8 1009 10 16.09344 0 0
4:53 am 04:53 Clear 67 19.4 32 0 27 27 NNW 16 26 29.83 1010 10 16.09344 0 0
5:53 am 05:53 Clear 65 18.3 32 0 29 29 NW 18 30 29.83 1010 10 16.09344 0 0
6:53 am 06:53 Sunny 65 18.3 32 0 29 29 NW 14 22 29.85 1011 10 16.09344 0 0
7:53 am 07:53 Sunny 67 19.4 33 0.6 28 28 NW 17 28 29.88 1012 10 16.09344 0 0
8:53 am 08:53 Sunny 70 21.1 34 1.1 27 27 NNW 21 33 29.91 1013 10 16.09344 0 0
9:53 am 09:53 Sunny 73 22.8 34 1.1 24 24 NNW 16 26 29.91 1013 10 16.09344 0 0
10:53 am 10:53 Sunny 74 23.3 33 0.6 22 22 NNW 16 26 29.91 1013 10 16.09344 0 0
11:53 am 11:53 Sunny 77 25 30 -1.1 18 18 NNW 14 22 29.91 1013 10 16.09344 0 0
12:53 pm 12:53 Sunny 78 25.6 29 -1.7 16 16 N 7 11 29.88 1012 10 16.09344 0 0
1:53 pm 13:53 Sunny 79 26.1 29 -1.7 16 16 undefined N/A 29.88 1012 10 16.09344 0 0
2:53 pm 14:53 Sunny 81 27.2 27 -2.8 14 14 undefined N/A 29.85 1011 10 16.09344 0 0
3:53 pm 15:53 Sunny 81 27.2 26 -3.3 13 13 WNW 6 9 29.85 1011 10 16.09344 0 0
4:53 pm 16:53 Sunny 82 27.8 25 -3.9 12 12 NW 7 11 29.85 1011 10 16.09344 0 0
5:53 pm 17:53 Sunny 82 27.8 21 -6.1 10 10 NW 8 13 29.85 1011 10 16.09344 0 0
6:53 pm 18:53 Clear 80 26.7 21 -6.1 11 11 NW 8 13 29.85 1011 10 16.09344 0 0
7:53 pm 19:53 Clear 77 25 20 -6.7 12 12 NNW 7 11 29.85 1011 10 16.09344 0 0
8:53 pm 20:53 Clear 76 24.4 23 -5 14 14 N 5 7 29.88 1012 10 16.09344 0 0
9:53 pm 21:53 Clear 73 22.8 25 -3.9 17 17 NE 7 11 29.88 1012 10 16.09344 0 0
10:53 pm 22:53 Clear 72 22.2 25 -3.9 17 17 WNW 5 7 29.88 1012 10 16.09344 0 0
11:53 pm 23:53 Clear 70 21.1 25 -3.9 18 18 WNW 7 11 29.88 1012 10 16.09344 0 0

Powered by AerisWeather